• In Belarus
  • List of Countries
  • For 7 days
  • Water Temperature
  • Satellite Maps
  • Weather Map
  • Weather Widgets
  • user-avatar
    Login

    Hourly Weather Charkhari

    Today, 25 September, Tuesday

    Time Temperature Precipitation Wind Pressure Humidity
    00:00 +29°C° 0 mm 3 mps 740 mmHg 75%
    01:00 +28°C° 0 mm 3 mps 740 mmHg 77%
    02:00 +28°C° 0 mm 3 mps 740 mmHg 78%
    03:00 +28°C° 0 mm 3 mps 740 mmHg 79%
    04:00 +28°C° 0 mm 3 mps 740 mmHg 80%
    05:00 +28°C° 0 mm 3 mps 740 mmHg 82%
    06:00 +29°C° 0 mm 4 mps 740 mmHg 78%
    07:00 +29°C° 0 mm 4 mps 740 mmHg 75%
    08:00 +30°C° 0 mm 5 mps 741 mmHg 72%
    09:00 +33°C° 0 mm 5 mps 741 mmHg 65%
    10:00 +34°C° 0 mm 6 mps 741 mmHg 58%
    11:00 +35°C° 0 mm 5 mps 741 mmHg 50%
    12:00 +36°C° 0 mm 5 mps 741 mmHg 48%
    13:00 +36°C° 0 mm 5 mps 740 mmHg 45%
    14:00 +37°C° 0 mm 5 mps 739 mmHg 42%
    15:00 +36°C° 0 mm 4 mps 739 mmHg 46%
    16:00 +35°C° 0 mm 4 mps 739 mmHg 49%
    17:00 +34°C° 0 mm 3 mps 739 mmHg 52%
    18:00 +34°C° 0 mm 3 mps 739 mmHg 55%
    19:00 +33°C° 0 mm 3 mps 739 mmHg 57%
    20:00 +31°C° 0 mm 2 mps 739 mmHg 59%
    21:00 +30°C° 0 mm 3 mps 739 mmHg 61%
    22:00 +30°C° 0 mm 3 mps 739 mmHg 62%
    23:00 +30°C° 0 mm 3 mps 739 mmHg 64%

    Tomorrow, 26 September, Wednesday

    Time Temperature Precipitation Wind Pressure Humidity
    00:00 +29°C° 0 mm 3 mps 739 mmHg 65%
    01:00 +29°C° 0 mm 3 mps 739 mmHg 67%
    02:00 +28°C° 0 mm 3 mps 739 mmHg 68%
    03:00 +28°C° 0 mm 3 mps 739 mmHg 69%
    04:00 +28°C° 0 mm 3 mps 739 mmHg 70%
    05:00 +27°C° 0 mm 3 mps 739 mmHg 71%
    06:00 +28°C° 0 mm 3 mps 740 mmHg 69%
    07:00 +29°C° 0 mm 3 mps 740 mmHg 67%
    08:00 +30°C° 0 mm 3 mps 740 mmHg 64%
    09:00 +33°C° 0 mm 3 mps 740 mmHg 59%
    10:00 +34°C° 0 mm 3 mps 740 mmHg 53%
    11:00 +36°C° 0 mm 3 mps 740 mmHg 47%
    12:00 +36°C° 0 mm 4 mps 740 mmHg 45%
    13:00 +37°C° 0 mm 4 mps 739 mmHg 43%
    14:00 +37°C° 0 mm 4 mps 739 mmHg 40%
    15:00 +37°C° 0 mm 4 mps 738 mmHg 43%
    16:00 +36°C° 0 mm 3 mps 738 mmHg 46%
    17:00 +35°C° 0 mm 2 mps 738 mmHg 49%
    18:00 +34°C° 0 mm 2 mps 739 mmHg 51%
    19:00 +32°C° 0 mm 2 mps 739 mmHg 52%
    20:00 +31°C° 0 mm 2 mps 740 mmHg 54%
    21:00 +31°C° 0 mm 2 mps 740 mmHg 55%
    22:00 +30°C° 0 mm 2 mps 740 mmHg 57%
    23:00 +30°C° 0 mm 2 mps 740 mmHg 58%

    Day after tomorrow, 27 September, Thursday

    Time Temperature Precipitation Wind Pressure Humidity
    00:00 +29°C° 0 mm 3 mps 739 mmHg 58%
    01:00 +29°C° 0 mm 3 mps 739 mmHg 59%
    02:00 +28°C° 0 mm 3 mps 739 mmHg 59%
    03:00 +28°C° 0 mm 3 mps 739 mmHg 59%
    04:00 +28°C° 0 mm 3 mps 739 mmHg 60%
    05:00 +27°C° 0 mm 3 mps 739 mmHg 60%
    06:00 +28°C° 0 mm 3 mps 740 mmHg 58%
    07:00 +29°C° 0 mm 3 mps 740 mmHg 57%
    08:00 +30°C° 0 mm 3 mps 741 mmHg 55%
    09:00 +33°C° 0 mm 3 mps 741 mmHg 50%
    10:00 +35°C° 0 mm 3 mps 741 mmHg 46%
    11:00 +36°C° 0 mm 3 mps 741 mmHg 41%
    12:00 +37°C° 0 mm 3 mps 740 mmHg 38%
    13:00 +38°C° 0 mm 3 mps 739 mmHg 36%
    14:00 +38°C° 0 mm 4 mps 739 mmHg 33%
    15:00 +37°C° 0 mm 3 mps 739 mmHg 36%
    16:00 +37°C° 0 mm 3 mps 738 mmHg 40%
    17:00 +36°C° 0 mm 2 mps 738 mmHg 43%
    18:00 +35°C° 0 mm 2 mps 739 mmHg 44%
    19:00 +34°C° 0 mm 2 mps 739 mmHg 46%
    20:00 +32°C° 0 mm 2 mps 740 mmHg 48%
    21:00 +31°C° 0 mm 2 mps 740 mmHg 49%
    22:00 +31°C° 0 mm 2 mps 740 mmHg 51%
    23:00 +30°C° 0 mm 2 mps 740 mmHg 52%

    28 September, Friday

    Time Temperature Precipitation Wind Pressure Humidity
    00:00 +30°C° 0 mm 2 mps 740 mmHg 53%
    01:00 +29°C° 0 mm 2 mps 739 mmHg 54%
    02:00 +29°C° 0 mm 3 mps 739 mmHg 55%
    03:00 +28°C° 0 mm 3 mps 739 mmHg 55%
    04:00 +28°C° 0 mm 3 mps 739 mmHg 56%
    05:00 +28°C° 0 mm 3 mps 739 mmHg 57%
    06:00 +29°C° 0 mm 3 mps 740 mmHg 55%
    07:00 +30°C° 0 mm 3 mps 741 mmHg 53%
    08:00 +32°C° 0 mm 4 mps 741 mmHg 52%
    09:00 +33°C° 0 mm 4 mps 741 mmHg 47%
    10:00 +35°C° 0 mm 4 mps 741 mmHg 43%
    11:00 +37°C° 0 mm 3 mps 741 mmHg 38%
    12:00 +37°C° 0 mm 3 mps 741 mmHg 35%
    13:00 +38°C° 0 mm 4 mps 740 mmHg 33%
    14:00 +40°C° 0 mm 4 mps 739 mmHg 30%
    15:00 +38°C° 0 mm 3 mps 739 mmHg 33%
    16:00 +37°C° 0 mm 3 mps 739 mmHg 36%
    17:00 +36°C° 0 mm 2 mps 739 mmHg 39%
    18:00 +35°C° 0 mm 2 mps 739 mmHg 41%
    19:00 +34°C° 0 mm 2 mps 740 mmHg 43%
    20:00 +32°C° 0 mm 2 mps 740 mmHg 44%
    21:00 +32°C° 0 mm 2 mps 740 mmHg 46%
    22:00 +31°C° 0 mm 2 mps 740 mmHg 48%
    23:00 +30°C° 0 mm 2 mps 740 mmHg 50%

    29 September, Saturday

    Time Temperature Precipitation Wind Pressure Humidity
    00:00 +30°C° 0 mm 2 mps 740 mmHg 52%
    01:00 +29°C° 0 mm 2 mps 740 mmHg 53%
    02:00 +29°C° 0 mm 2 mps 739 mmHg 55%
    03:00 +29°C° 0 mm 2 mps 739 mmHg 56%
    04:00 +28°C° 0 mm 2 mps 740 mmHg 56%
    05:00 +28°C° 0 mm 2 mps 740 mmHg 57%
    06:00 +29°C° 0 mm 3 mps 740 mmHg 54%
    07:00 +30°C° 0 mm 3 mps 741 mmHg 52%
    08:00 +32°C° 0 mm 4 mps 742 mmHg 50%
    09:00 +34°C° 0 mm 4 mps 742 mmHg 45%
    10:00 +35°C° 0 mm 4 mps 741 mmHg 40%
    11:00 +37°C° 0 mm 4 mps 741 mmHg 35%
    12:00 +38°C° 0 mm 4 mps 741 mmHg 33%
    13:00 +38°C° 0 mm 4 mps 740 mmHg 31%
    14:00 +40°C° 0 mm 4 mps 739 mmHg 29%
    15:00 +38°C° 0 mm 3 mps 739 mmHg 32%
    16:00 +37°C° 0 mm 3 mps 739 mmHg 35%
    17:00 +36°C° 0 mm 2 mps 739 mmHg 39%
    18:00 +35°C° 0 mm 2 mps 739 mmHg 40%
    19:00 +34°C° 0 mm 2 mps 740 mmHg 41%
    20:00 +32°C° 0 mm 2 mps 740 mmHg 43%
    21:00 +31°C° 0 mm 2 mps 740 mmHg 45%
    22:00 +31°C° 0 mm 2 mps 740 mmHg 46%
    23:00 +30°C° 0 mm 2 mps 740 mmHg 48%

    30 September, Sunday

    Time Temperature Precipitation Wind Pressure Humidity
    00:00 +30°C° 0 mm 2 mps 740 mmHg 50%
    01:00 +29°C° 0 mm 2 mps 739 mmHg 52%
    02:00 +29°C° 0 mm 2 mps 739 mmHg 53%
    03:00 +28°C° 0 mm 2 mps 739 mmHg 54%
    04:00 +28°C° 0 mm 2 mps 739 mmHg 55%
    05:00 +28°C° 0 mm 2 mps 740 mmHg 56%
    06:00 +29°C° 0 mm 2 mps 740 mmHg 54%
    07:00 +30°C° 0 mm 2 mps 741 mmHg 52%
    08:00 +31°C° 0 mm 2 mps 741 mmHg 50%
    09:00 +34°C° 0 mm 3 mps 741 mmHg 45%
    10:00 +36°C° 0 mm 3 mps 741 mmHg 40%
    11:00 +37°C° 0 mm 3 mps 741 mmHg 35%
    12:00 +38°C° 0 mm 3 mps 740 mmHg 33%
    13:00 +39°C° 0 mm 3 mps 739 mmHg 31%
    14:00 +39°C° 0 mm 3 mps 738 mmHg 29%
    15:00 +38°C° 0 mm 3 mps 738 mmHg 31%
    16:00 +37°C° 0 mm 2 mps 738 mmHg 34%
    17:00 +37°C° 0 mm 2 mps 738 mmHg 36%
    18:00 +35°C° 0 mm 2 mps 738 mmHg 38%
    19:00 +34°C° 0 mm 2 mps 739 mmHg 39%
    20:00 +32°C° 0 mm 2 mps 739 mmHg 40%
    21:00 +32°C° 0 mm 2 mps 739 mmHg 42%
    22:00 +31°C° 0 mm 2 mps 739 mmHg 44%
    23:00 +30°C° 0 mm 1 mps 739 mmHg 45%
    Show more